,,,PA_Meas_PMT16A,,PR_Meas_QMR101_102,,RH_Meas_QMH101,,SR_Meas_QMS101,,TA_Meas_QMH101,,GenWind,,GenWind,
date,time,status,PA,status,PR,status,RH,status,SR,status,TA,status,DirAvg,status,SpdAvg,
2008-04-30, 00:00:05,VALID,1003.74,VALID,0,VALID,95.155,VALID,0,VALID,24.192,VALID,55,VALID,0.433594,
2008-04-30, 00:01:05,VALID,1003.75,VALID,0,VALID,95.2618,VALID,0,VALID,24.231,VALID,57,VALID,0.254297,
2008-04-30, 00:02:05,VALID,1003.73,VALID,0,VALID,95.2695,VALID,0,VALID,24.231,VALID,60,VALID,0.515625,
2008-04-30, 00:03:05,VALID,1003.71,VALID,0,VALID,95.2542,VALID,0,VALID,24.2504,VALID,62,VALID,0.317187,
2008-04-30, 00:04:05,VALID,1003.69,VALID,0,VALID,95.2084,VALID,0,VALID,24.2504,VALID,64,VALID,0.596875,
2008-04-30, 00:05:05,VALID,1003.66,VALID,0,VALID,95.2771,VALID,0,VALID,24.2894,VALID,64,VALID,0.447266,
2008-04-30, 00:06:05,VALID,1003.65,VALID,0,VALID,95.1398,VALID,0,VALID,24.2699,VALID,43,VALID,0.451172,
2008-04-30, 00:07:05,VALID,1003.61,VALID,0,VALID,95.1093,VALID,0,VALID,24.2699,VALID,43,VALID,0.419922,
2008-04-30, 00:08:05,VALID,1003.62,VALID,0,VALID,95.1245,VALID,0,VALID,24.2504,VALID,43,VALID,0.228906,
2008-04-30, 00:09:05,VALID,1003.58,VALID,0,VALID,95.1398,VALID,0,VALID,24.231,VALID,43,VALID,0.337109,
2008-04-30, 00:10:05,VALID,1003.59,VALID,0,VALID,95.3152,VALID,0,VALID,24.2699,VALID,43,VALID,0.391016,
2008-04-30, 00:11:05,VALID,1003.59,VALID,0,VALID,95.2695,VALID,0,VALID,24.2894,VALID,43,VALID,0.205078,
2008-04-30, 00:12:05,VALID,1003.59,VALID,0,VALID,95.2161,VALID,0,VALID,24.2894,VALID,44,VALID,0.251172,
2008-04-30, 00:13:05,VALID,1003.56,VALID,0,VALID,95.2008,VALID,0,VALID,24.3107,VALID,44,VALID,0.161328,
2008-04-30, 00:14:05,VALID,1003.55,VALID,0,VALID,95.2084,VALID,0,VALID,24.3088,VALID,64,VALID,0.299219,
2008-04-30, 00:15:05,VALID,1003.49,VALID,0,VALID,95.2008,VALID,0,VALID,24.3302,VALID,64,VALID,0.482031,
2008-04-30, 00:16:04,VALID,1003.51,VALID,0,VALID,95.2466,VALID,0,VALID,24.3478,VALID,65,VALID,0.511719,
2008-04-30, 00:17:04,VALID,1003.5,VALID,0,VALID,95.1627,VALID,0,VALID,24.3673,VALID,69,VALID,0.313672,
2008-04-30, 00:18:04,VALID,1003.51,VALID,0,VALID,95.1093,VALID,0,VALID,24.408,VALID,69,VALID,0.286719,
2008-04-30, 00:19:04,VALID,1003.5,VALID,0,VALID,95.1474,VALID,0,VALID,24.4275,VALID,75,VALID,0.751953,
2008-04-30, 00:20:04,VALID,1003.46,VALID,0,VALID,95.1169,VALID,0,VALID,24.4451,VALID,81,VALID,0.358203,
2008-04-30, 00:21:04,VALID,1003.45,VALID,0,VALID,95.094,VALID,0,VALID,24.5035,VALID,85,VALID,0.576172,
2008-04-30, 00:22:04,VALID,1003.4,VALID,0,VALID,94.9262,VALID,0,VALID,24.523,VALID,85,VALID,0.317187,
2008-04-30, 00:23:04,VALID,1003.38,VALID,0,VALID,94.8422,VALID,0,VALID,24.5425,VALID,84,VALID,0.633203,
2008-04-30, 00:24:04,VALID,1003.35,VALID,0,VALID,94.6515,VALID,0,VALID,24.5425,VALID,64,VALID,0.319922,
2008-04-30, 00:25:04,VALID,1003.34,VALID,0,VALID,94.5447,VALID,0,VALID,24.5425,VALID,69,VALID,0.345703,
2008-04-30, 00:26:04,VALID,1003.35,VALID,0,VALID,94.5295,VALID,0,VALID,24.5425,VALID,68,VALID,0.458203,
2008-04-30, 00:27:04,VALID,1003.35,VALID,0,VALID,94.5066,VALID,0,VALID,24.5638,VALID,75,VALID,0.442578,
2008-04-30, 00:28:04,VALID,1003.34,VALID,0,VALID,94.3921,VALID,0,VALID,24.5425,VALID,72,VALID,0.411328,
2008-04-30, 00:29:04,VALID,1003.36,VALID,0,VALID,94.4227,VALID,0,VALID,24.5638,VALID,71,VALID,0.711719,
2008-04-30, 00:30:04,VALID,1003.35,VALID,0,VALID,94.354,VALID,0,VALID,24.562,VALID,86,VALID,0.51875,
2008-04-30, 00:31:04,VALID,1003.36,VALID,0,VALID,94.293,VALID,0,VALID,24.5814,VALID,86,VALID,0.567969,
2008-04-30, 00:32:04,VALID,1003.35,VALID,0,VALID,94.1785,VALID,0,VALID,24.5814,VALID,86,VALID,0.189063,
2008-04-30, 00:33:04,VALID,1003.32,VALID,0,VALID,94.0565,VALID,0,VALID,24.5425,VALID,86,VALID,0.0679687,
2008-04-30, 00:34:04,VALID,1003.32,VALID,0,VALID,94.1862,VALID,0,VALID,24.5814,VALID,75,VALID,0.370313,
2008-04-30, 00:35:04,VALID,1003.29,VALID,0,VALID,94.0031,VALID,0,VALID,24.562,VALID,75,VALID,0.0257812,
2008-04-30, 00:36:04,VALID,1003.32,VALID,0,VALID,93.9497,VALID,0,VALID,24.523,VALID,75,VALID,0.171484,
2008-04-30, 00:37:04,VALID,1003.33,VALID,0,VALID,93.9649,VALID,0,VALID,24.5035,VALID,75,VALID,0.00351562,
2008-04-30, 00:38:04,VALID,1003.3,VALID,0,VALID,94.0183,VALID,0,VALID,24.4841,VALID,75,VALID,0.183203,
2008-04-30, 00:39:04,VALID,1003.3,VALID,0,VALID,94.0946,VALID,0,VALID,24.4841,VALID,75,VALID,0.208984,
2008-04-30, 00:40:04,VALID,1003.28,VALID,0,VALID,94.0794,VALID,0,VALID,24.5054,VALID,75,VALID,0.0984375,
2008-04-30, 00:41:04,VALID,1003.3,VALID,0,VALID,94.1022,VALID,0,VALID,24.4646,VALID,75,VALID,0.275781,
2008-04-30, 00:42:04,VALID,1003.31,VALID,0,VALID,94.148,VALID,0.100563,VALID,24.4628,VALID,75,VALID,0.333984,
2008-04-30, 00:43:04,VALID,1003.29,VALID,0,VALID,94.1709,VALID,0.100563,VALID,24.4433,VALID,75,VALID,0.118359,
2008-04-30, 00:44:04,VALID,1003.32,VALID,0,VALID,94.2014,VALID,0.100563,VALID,24.4628,VALID,74,VALID,0.118359,
2008-04-30, 00:45:04,VALID,1003.32,VALID,0,VALID,94.1938,VALID,0.100563,VALID,24.4433,VALID,74,VALID,0.0292969,
2008-04-30, 00:46:04,VALID,1003.32,VALID,0,VALID,94.209,VALID,0.100563,VALID,24.4238,VALID,74,VALID,0.003125,
2008-04-30, 00:47:04,VALID,1003.31,VALID,0,VALID,94.2396,VALID,0,VALID,24.4238,VALID,74,VALID,0.177344,
2008-04-30, 00:48:04,VALID,1003.29,VALID,0,VALID,94.3082,VALID,0.100563,VALID,24.4433,VALID,74,VALID,0.153906,
2008-04-30, 00:49:04,VALID,1003.28,VALID,0,VALID,94.3387,VALID,0.100563,VALID,24.4238,VALID,74,VALID,0,
2008-04-30, 00:50:04,VALID,1003.26,VALID,0,VALID,94.3311,VALID,0,VALID,24.4238,VALID,72,VALID,0.203125,
2008-04-30, 00:51:04,VALID,1003.23,VALID,0,VALID,94.3769,VALID,0,VALID,24.4043,VALID,72,VALID,0.305859,
2008-04-30, 00:52:04,VALID,1003.26,VALID,0,VALID,94.3692,VALID,0,VALID,24.4043,VALID,72,VALID,0.308594,
2008-04-30, 00:53:04,VALID,1003.24,VALID,0,VALID,94.2853,VALID,0.100563,VALID,24.3849,VALID,72,VALID,0.309766,
2008-04-30, 00:54:04,VALID,1003.25,VALID,0,VALID,94.3464,VALID,0.100563,VALID,24.3849,VALID,72,VALID,0.369922,
2008-04-30, 00:55:04,VALID,1003.23,VALID,0,VALID,94.4074,VALID,0.100563,VALID,24.3654,VALID,72,VALID,0.360938,
2008-04-30, 00:56:04,VALID,1003.23,VALID,0,VALID,94.4303,VALID,0,VALID,24.3849,VALID,72,VALID,0.268359,
2008-04-30, 00:57:04,VALID,1003.23,VALID,0,VALID,94.56,VALID,0,VALID,24.4062,VALID,57,VALID,0.472266,
2008-04-30, 00:58:04,VALID,1003.24,VALID,0,VALID,94.4837,VALID,0,VALID,24.4062,VALID,57,VALID,0.1125,
2008-04-30, 00:59:04,VALID,1003.22,VALID,0,VALID,94.3921,VALID,0,VALID,24.4062,VALID,57,VALID,0.128125,
2008-04-30, 01:00:04,VALID,1003.21,VALID,0,VALID,94.415,VALID,0,VALID,24.3867,VALID,57,VALID,0.157813,
2008-04-30, 01:01:04,VALID,1003.19,VALID,0,VALID,94.4379,VALID,0,VALID,24.3867,VALID,57,VALID,0.274609,
2008-04-30, 01:02:04,VALID,1003.16,VALID,0,VALID,94.4227,VALID,0,VALID,24.3867,VALID,57,VALID,0.149609,
2008-04-30, 01:03:04,VALID,1003.12,VALID,0,VALID,94.4608,VALID,0,VALID,24.3867,VALID,57,VALID,0,
2008-04-30, 01:04:04,VALID,1003.08,VALID,0,VALID,94.4761,VALID,0,VALID,24.4062,VALID,57,VALID,0.297656,
2008-04-30, 01:05:04,VALID,1003.08,VALID,0,VALID,94.5371,VALID,0,VALID,24.3849,VALID,57,VALID,0.347266,
2008-04-30, 01:06:04,VALID,1003.03,VALID,0,VALID,94.5676,VALID,0,VALID,24.4257,VALID,57,VALID,0.269141,
2008-04-30, 01:07:04,VALID,1003.05,VALID,0,VALID,94.5829,VALID,0,VALID,24.4043,VALID,54,VALID,0.269141,
2008-04-30, 01:08:04,VALID,1003.04,VALID,0,VALID,94.5829,VALID,0,VALID,24.4257,VALID,51,VALID,0.238672,
2008-04-30, 01:09:04,VALID,1002.99,VALID,0,VALID,94.5447,VALID,0,VALID,24.3867,VALID,51,VALID,0.132031,
2008-04-30, 01:10:04,VALID,1003,VALID,0,VALID,94.5829,VALID,0,VALID,24.3867,VALID,51,VALID,0.0433594,
2008-04-30, 01:11:04,VALID,1003,VALID,0,VALID,94.5981,VALID,0,VALID,24.3673,VALID,51,VALID,0,
2008-04-30, 01:12:04,VALID,1003,VALID,0,VALID,94.6973,VALID,0,VALID,24.3673,VALID,51,VALID,0,
2008-04-30, 01:13:04,VALID,1003.02,VALID,0,VALID,94.7736,VALID,0,VALID,24.408,VALID,51,VALID,0,
2008-04-30, 01:14:04,VALID,1003.02,VALID,0,VALID,94.8346,VALID,0,VALID,24.3886,VALID,51,VALID,0,
2008-04-30, 01:15:04,VALID,1003.06,VALID,0,VALID,94.8956,VALID,0,VALID,24.3867,VALID,51,VALID,0,
2008-04-30, 01:16:04,VALID,1003.04,VALID,0,VALID,94.8499,VALID,0,VALID,24.4062,VALID,51,VALID,0,
2008-04-30, 01:17:04,VALID,1003.03,VALID,0,VALID,94.827,VALID,0,VALID,24.3849,VALID,51,VALID,0,
2008-04-30, 01:18:04,VALID,1003.05,VALID,0,VALID,94.7888,VALID,0,VALID,24.4062,VALID,51,VALID,0,
2008-04-30, 01:19:04,VALID,1003.03,VALID,0,VALID,94.8804,VALID,0,VALID,24.4062,VALID,51,VALID,0,
2008-04-30, 01:20:04,VALID,1003.04,VALID,0,VALID,94.9033,VALID,0,VALID,24.4275,VALID,51,VALID,0.402734,
2008-04-30, 01:21:04,VALID,1003.03,VALID,0,VALID,94.9414,VALID,0,VALID,24.4062,VALID,51,VALID,0.29375,
2008-04-30, 01:22:04,VALID,1003.04,VALID,0,VALID,94.9109,VALID,0,VALID,24.4062,VALID,51,VALID,0.378516,
2008-04-30, 01:23:04,VALID,1003.04,VALID,0,VALID,94.9109,VALID,0,VALID,24.4062,VALID,51,VALID,0.385547,
2008-04-30, 01:24:04,VALID,1003.05,VALID,0,VALID,94.9109,VALID,0,VALID,24.3867,VALID,51,VALID,0.434375,
2008-04-30, 01:25:04,VALID,1003.04,VALID,0,VALID,94.9338,VALID,0,VALID,24.4062,VALID,51,VALID,0.434375,
2008-04-30, 01:26:04,VALID,1003.05,VALID,0,VALID,94.9948,VALID,0,VALID,24.3867,VALID,51,VALID,0.271484,
2008-04-30, 01:27:04,VALID,1003.03,VALID,0,VALID,94.9948,VALID,0,VALID,24.3654,VALID,51,VALID,0.21875,
2008-04-30, 01:28:04,VALID,1003.04,VALID,0,VALID,94.9948,VALID,0,VALID,24.3673,VALID,51,VALID,0.317969,
2008-04-30, 01:29:04,VALID,1003.03,VALID,0,VALID,95.0558,VALID,0,VALID,24.3673,VALID,51,VALID,0.288281,
2008-04-30, 01:30:04,VALID,1003.03,VALID,0,VALID,95.0787,VALID,0,VALID,24.3867,VALID,51,VALID,0.334375,
2008-04-30, 01:31:04,VALID,1003.04,VALID,0,VALID,95.1016,VALID,0,VALID,24.3673,VALID,51,VALID,0.230859,
2008-04-30, 01:32:04,VALID,1003.04,VALID,0,VALID,95.1245,VALID,0,VALID,24.3673,VALID,51,VALID,0.271875,
2008-04-30, 01:33:04,VALID,1003.04,VALID,0,VALID,95.1321,VALID,0,VALID,24.3673,VALID,51,VALID,0.183984,
2008-04-30, 01:34:04,VALID,1003.06,VALID,0,VALID,95.1245,VALID,0,VALID,24.3673,VALID,51,VALID,0.222656,
2008-04-30, 01:35:04,VALID,1003.04,VALID,0,VALID,95.1779,VALID,0,VALID,24.3673,VALID,51,VALID,0.0195313,
2008-04-30, 01:36:04,VALID,1003.05,VALID,0,VALID,95.2008,VALID,0,VALID,24.3867,VALID,51,VALID,0,
2008-04-30, 01:37:04,VALID,1003.04,VALID,0,VALID,95.2008,VALID,0,VALID,24.408,VALID,51,VALID,0.333203,
2008-04-30, 01:38:04,VALID,1003.05,VALID,0,VALID,95.2084,VALID,0,VALID,24.3867,VALID,51,VALID,0.363672,
2008-04-30, 01:39:04,VALID,1003.03,VALID,0,VALID,95.2008,VALID,0,VALID,24.3867,VALID,51,VALID,0.379297,
2008-04-30, 01:40:04,VALID,1003.03,VALID,0,VALID,95.1932,VALID,0,VALID,24.3867,VALID,51,VALID,0.403906,
2008-04-30, 01:41:04,VALID,1003.04,VALID,0,VALID,95.2313,VALID,0,VALID,24.4062,VALID,51,VALID,0.308203,
2008-04-30, 01:42:04,VALID,1003,VALID,0,VALID,95.2008,VALID,0,VALID,24.4062,VALID,51,VALID,0.30625,
2008-04-30, 01:43:04,VALID,1003.02,VALID,0,VALID,95.1398,VALID,0,VALID,24.4257,VALID,51,VALID,0.361328,
2008-04-30, 01:44:04,VALID,1002.98,VALID,0,VALID,95.1016,VALID,0,VALID,24.4062,VALID,51,VALID,0.303516,
2008-04-30, 01:45:04,VALID,1003.02,VALID,0,VALID,95.0635,VALID,0,VALID,24.3654,VALID,51,VALID,0.466406,
2008-04-30, 01:46:04,VALID,1002.99,VALID,0,VALID,95.1016,VALID,0,VALID,24.3867,VALID,51,VALID,0.407422,
2008-04-30, 01:47:04,VALID,1003,VALID,0,VALID,95.1016,VALID,0,VALID,24.4062,VALID,51,VALID,0.300781,
2008-04-30, 01:48:04,VALID,1003,VALID,0,VALID,95.0177,VALID,0,VALID,24.3867,VALID,51,VALID,0.449219,
2008-04-30, 01:49:04,VALID,1003.01,VALID,0,VALID,94.9948,VALID,0,VALID,24.3478,VALID,51,VALID,0.421484,
2008-04-30, 01:50:04,VALID,1002.98,VALID,0,VALID,95.0635,VALID,0,VALID,24.3886,VALID,51,VALID,0.372266,
2008-04-30, 01:51:04,VALID,1002.95,VALID,0,VALID,95.1169,VALID,0,VALID,24.3886,VALID,51,VALID,0.2625,
2008-04-30, 01:52:04,VALID,1002.96,VALID,0,VALID,95.0864,VALID,0,VALID,24.3673,VALID,51,VALID,0.00117188,
2008-04-30, 01:53:04,VALID,1002.93,VALID,0,VALID,95.0558,VALID,0,VALID,24.3478,VALID,51,VALID,0.229297,
2008-04-30, 01:54:04,VALID,1002.95,VALID,0,VALID,95.1016,VALID,0,VALID,24.3283,VALID,51,VALID,0.242188,
2008-04-30, 01:55:04,VALID,1002.95,VALID,0,VALID,95.1321,VALID,0,VALID,24.3496,VALID,51,VALID,0,
2008-04-30, 01:56:04,VALID,1002.93,VALID,0,VALID,95.1321,VALID,0,VALID,24.3302,VALID,51,VALID,0,
2008-04-30, 01:57:04,VALID,1002.92,VALID,0,VALID,95.1398,VALID,0,VALID,24.3088,VALID,51,VALID,0,
2008-04-30, 01:58:04,VALID,1002.93,VALID,0,VALID,95.155,VALID,0,VALID,24.2894,VALID,51,VALID,0.26875,
2008-04-30, 01:59:04,VALID,1002.9,VALID,0,VALID,95.2389,VALID,0,VALID,24.3302,VALID,51,VALID,0.246484,
2008-04-30, 02:00:04,VALID,1002.86,VALID,0,VALID,95.2466,VALID,0,VALID,24.3302,VALID,51,VALID,0.282813,
2008-04-30, 02:01:04,VALID,1002.87,VALID,0,VALID,95.2542,VALID,0,VALID,24.3088,VALID,51,VALID,0.346875,
2008-04-30, 02:02:04,VALID,1002.85,VALID,0,VALID,95.2618,VALID,0,VALID,24.2894,VALID,51,VALID,0.328906,
2008-04-30, 02:03:04,VALID,1002.82,VALID,0,VALID,95.2313,VALID,0,VALID,24.3283,VALID,51,VALID,0.402344,
2008-04-30, 02:04:04,VALID,1002.79,VALID,0,VALID,95.2313,VALID,0,VALID,24.3302,VALID,51,VALID,0.308203,
2008-04-30, 02:05:04,VALID,1002.76,VALID,0,VALID,95.2008,VALID,0,VALID,24.3088,VALID,51,VALID,0.241797,
2008-04-30, 02:06:04,VALID,1002.77,VALID,0,VALID,95.1627,VALID,0,VALID,24.3088,VALID,51,VALID,0.273047,
2008-04-30, 02:07:04,VALID,1002.75,VALID,0,VALID,95.1627,VALID,0,VALID,24.2894,VALID,51,VALID,0.183984,
2008-04-30, 02:08:04,VALID,1002.75,VALID,0,VALID,95.1398,VALID,0,VALID,24.2699,VALID,51,VALID,0.340625,
2008-04-30, 02:09:04,VALID,1002.75,VALID,0,VALID,95.1703,VALID,0,VALID,24.2699,VALID,51,VALID,0.2375,
2008-04-30, 02:10:04,VALID,1002.7,VALID,0,VALID,95.1932,VALID,0,VALID,24.2699,VALID,51,VALID,0.302734,
2008-04-30, 02:11:04,VALID,1002.69,VALID,0,VALID,95.1627,VALID,0,VALID,24.2504,VALID,51,VALID,0.351172,
2008-04-30, 02:12:04,VALID,1002.67,VALID,0,VALID,95.1703,VALID,0,VALID,24.231,VALID,51,VALID,0.349609,
2008-04-30, 02:13:04,VALID,1002.69,VALID,0,VALID,95.2008,VALID,0,VALID,24.231,VALID,51,VALID,0.423828,
2008-04-30, 02:14:04,VALID,1002.63,VALID,0,VALID,95.2618,VALID,0,VALID,24.231,VALID,51,VALID,0.341016,
2008-04-30, 02:15:04,VALID,1002.63,VALID,0,VALID,95.2847,VALID,0,VALID,24.231,VALID,51,VALID,0.274609,
2008-04-30, 02:16:04,VALID,1002.62,VALID,0,VALID,95.2923,VALID,0,VALID,24.2115,VALID,51,VALID,0.378125,
2008-04-30, 02:17:04,VALID,1002.63,VALID,0,VALID,95.3076,VALID,0,VALID,24.2115,VALID,51,VALID,0.336328,
2008-04-30, 02:18:04,VALID,1002.61,VALID,0,VALID,95.3076,VALID,0,VALID,24.2115,VALID,51,VALID,0.249609,
2008-04-30, 02:19:04,VALID,1002.59,VALID,0,VALID,95.2923,VALID,0,VALID,24.192,VALID,51,VALID,0.195313,
2008-04-30, 02:20:04,VALID,1002.59,VALID,0,VALID,95.2847,VALID,0,VALID,24.1726,VALID,51,VALID,0,
2008-04-30, 02:21:04,VALID,1002.6,VALID,0,VALID,95.3457,VALID,0,VALID,24.1726,VALID,51,VALID,0.275391,
2008-04-30, 02:22:04,VALID,1002.56,VALID,0,VALID,95.3686,VALID,0,VALID,24.1726,VALID,51,VALID,0.428906,
2008-04-30, 02:23:04,VALID,1002.56,VALID,0,VALID,95.2923,VALID,0,VALID,24.1726,VALID,51,VALID,0.414844,
2008-04-30, 02:24:04,VALID,1002.55,VALID,0,VALID,95.2466,VALID,0,VALID,24.1531,VALID,51,VALID,0.441797,
2008-04-30, 02:25:04,VALID,1002.5,VALID,0,VALID,95.2466,VALID,0,VALID,24.1336,VALID,51,VALID,0.31875,
2008-04-30, 02:26:04,VALID,1002.51,VALID,0,VALID,95.2771,VALID,0,VALID,24.1336,VALID,51,VALID,0.322266,
2008-04-30, 02:27:04,VALID,1002.5,VALID,0,VALID,95.2695,VALID,0,VALID,24.1142,VALID,51,VALID,0.248047,
2008-04-30, 02:28:04,VALID,1002.46,VALID,0,VALID,95.2923,VALID,0,VALID,24.1142,VALID,51,VALID,0.251563,
2008-04-30, 02:29:04,VALID,1002.47,VALID,0,VALID,95.3457,VALID,0.100563,VALID,24.1336,VALID,51,VALID,0.255469,
2008-04-30, 02:30:04,VALID,1002.5,VALID,0,VALID,95.3229,VALID,0,VALID,24.1142,VALID,51,VALID,0.173438,
2008-04-30, 02:31:04,VALID,1002.47,VALID,0,VALID,95.3381,VALID,0,VALID,24.1142,VALID,51,VALID,0.0464844,
2008-04-30, 02:32:04,VALID,1002.48,VALID,0,VALID,95.3457,VALID,0,VALID,24.1142,VALID,51,VALID,0.203906,
2008-04-30, 02:33:04,VALID,1002.47,VALID,0,VALID,95.4144,VALID,0,VALID,24.0929,VALID,51,VALID,0.267188,
2008-04-30, 02:34:04,VALID,1002.48,VALID,0,VALID,95.4297,VALID,0,VALID,24.1336,VALID,51,VALID,0.366797,
2008-04-30, 02:35:04,VALID,1002.46,VALID,0,VALID,95.3839,VALID,0,VALID,24.1336,VALID,51,VALID,0.363672,
2008-04-30, 02:36:04,VALID,1002.43,VALID,0,VALID,95.3763,VALID,0,VALID,24.1531,VALID,51,VALID,0.282813,
2008-04-30, 02:37:04,VALID,1002.45,VALID,0,VALID,95.3076,VALID,0,VALID,24.1531,VALID,51,VALID,0.290234,
2008-04-30, 02:38:04,VALID,1002.44,VALID,0,VALID,95.2542,VALID,0,VALID,24.1336,VALID,51,VALID,0.38125,
2008-04-30, 02:39:04,VALID,1002.45,VALID,0,VALID,95.2695,VALID,0,VALID,24.1336,VALID,51,VALID,0.257031,
2008-04-30, 02:40:04,VALID,1002.45,VALID,0,VALID,95.2923,VALID,0,VALID,24.1142,VALID,51,VALID,0.254297,
2008-04-30, 02:41:04,VALID,1002.44,VALID,0,VALID,95.3076,VALID,0,VALID,24.1142,VALID,51,VALID,0.3,
2008-04-30, 02:42:04,VALID,1002.43,VALID,0,VALID,95.3457,VALID,0,VALID,24.0929,VALID,51,VALID,0.303516,
2008-04-30, 02:43:04,VALID,1002.44,VALID,0,VALID,95.4068,VALID,0,VALID,24.1142,VALID,51,VALID,0.297656,
2008-04-30, 02:44:04,VALID,1002.44,VALID,0,VALID,95.3915,VALID,0,VALID,24.1142,VALID,51,VALID,0.280078,
2008-04-30, 02:45:04,VALID,1002.43,VALID,0,VALID,95.4068,VALID,0,VALID,24.0947,VALID,51,VALID,0.0230469,
2008-04-30, 02:46:04,VALID,1002.47,VALID,0,VALID,95.4068,VALID,0,VALID,24.0947,VALID,51,VALID,0,
2008-04-30, 02:47:04,VALID,1002.41,VALID,0,VALID,95.3839,VALID,0,VALID,24.0752,VALID,51,VALID,0,
2008-04-30, 02:48:04,VALID,1002.44,VALID,0,VALID,95.3839,VALID,0,VALID,24.0752,VALID,51,VALID,0,
2008-04-30, 02:49:04,VALID,1002.43,VALID,0,VALID,95.4068,VALID,0,VALID,24.0752,VALID,51,VALID,0,
2008-04-30, 02:50:04,VALID,1002.43,VALID,0,VALID,95.4068,VALID,0,VALID,24.0557,VALID,51,VALID,0,
2008-04-30, 02:51:04,VALID,1002.44,VALID,0,VALID,95.4297,VALID,0,VALID,24.0965,VALID,51,VALID,0,
2008-04-30, 02:52:04,VALID,1002.41,VALID,0,VALID,95.4602,VALID,0,VALID,24.0557,VALID,51,VALID,0,
2008-04-30, 02:53:04,VALID,1002.41,VALID,0,VALID,95.4526,VALID,0,VALID,24.0734,VALID,51,VALID,0,
2008-04-30, 02:54:04,VALID,1002.41,VALID,0,VALID,95.4526,VALID,0,VALID,24.0752,VALID,51,VALID,0,
2008-04-30, 02:55:04,VALID,1002.42,VALID,0,VALID,95.4449,VALID,0,VALID,24.0947,VALID,51,VALID,0.471875,
2008-04-30, 02:56:04,VALID,1002.4,VALID,0,VALID,95.422,VALID,0,VALID,24.1142,VALID,51,VALID,0.167187,
2008-04-30, 02:57:04,VALID,1002.41,VALID,0,VALID,95.3991,VALID,0,VALID,24.0947,VALID,51,VALID,0.280078,
2008-04-30, 02:58:04,VALID,1002.38,VALID,0,VALID,95.3763,VALID,0,VALID,24.1142,VALID,51,VALID,0.439453,
2008-04-30, 02:59:04,VALID,1002.42,VALID,0,VALID,95.3534,VALID,0,VALID,24.1142,VALID,51,VALID,0.327344,
2008-04-30, 03:00:04,VALID,1002.43,VALID,0,VALID,95.3152,VALID,0,VALID,24.1336,VALID,51,VALID,0.3125,
2008-04-30, 03:01:04,VALID,1002.43,VALID,0,VALID,95.2923,VALID,0,VALID,24.1123,VALID,51,VALID,0.374609,
2008-04-30, 03:02:04,VALID,1002.44,VALID,0,VALID,95.2923,VALID,0,VALID,24.1123,VALID,51,VALID,0.293359,
2008-04-30, 03:03:04,VALID,1002.47,VALID,0,VALID,95.2618,VALID,0,VALID,24.1531,VALID,51,VALID,0.207422,
2008-04-30, 03:04:04,VALID,1002.43,VALID,0,VALID,95.2313,VALID,0,VALID,24.1336,VALID,51,VALID,0,
2008-04-30, 03:05:04,VALID,1002.43,VALID,0,VALID,95.2313,VALID,0,VALID,24.1336,VALID,51,VALID,0.160547,
2008-04-30, 03:06:04,VALID,1002.44,VALID,0,VALID,95.2618,VALID,0,VALID,24.1336,VALID,49,VALID,0.466797,
2008-04-30, 03:07:04,VALID,1002.42,VALID,0,VALID,95.2923,VALID,0,VALID,24.1531,VALID,48,VALID,0.209375,
2008-04-30, 03:08:04,VALID,1002.4,VALID,0,VALID,95.2923,VALID,0,VALID,24.1726,VALID,48,VALID,0.260547,
2008-04-30, 03:09:04,VALID,1002.4,VALID,0,VALID,95.2542,VALID,0,VALID,24.1707,VALID,48,VALID,0.0890625,
2008-04-30, 03:10:04,VALID,1002.37,VALID,0,VALID,95.2237,VALID,0,VALID,24.2115,VALID,48,VALID,0.419141,
2008-04-30, 03:11:04,VALID,1002.34,VALID,0,VALID,95.155,VALID,0,VALID,24.231,VALID,48,VALID,0.24375,
2008-04-30, 03:12:04,VALID,1002.35,VALID,0,VALID,95.0635,VALID,0,VALID,24.231,VALID,48,VALID,0.125781,
2008-04-30, 03:13:04,VALID,1002.35,VALID,0,VALID,95.033,VALID,0,VALID,24.2504,VALID,48,VALID,0.328906,
2008-04-30, 03:14:04,VALID,1002.34,VALID,0,VALID,95.0406,VALID,0,VALID,24.2504,VALID,47,VALID,0.337891,
2008-04-30, 03:15:04,VALID,1002.32,VALID,0,VALID,95.0177,VALID,0,VALID,24.2486,VALID,47,VALID,0.1375,
2008-04-30, 03:16:04,VALID,1002.31,VALID,0,VALID,95.0024,VALID,0,VALID,24.2699,VALID,47,VALID,0.303906,
2008-04-30, 03:17:04,VALID,1002.29,VALID,0,VALID,94.9643,VALID,0,VALID,24.2894,VALID,47,VALID,0.0664063,
2008-04-30, 03:18:04,VALID,1002.3,VALID,0,VALID,94.949,VALID,0,VALID,24.2894,VALID,48,VALID,0.422656,
2008-04-30, 03:19:04,VALID,1002.27,VALID,0,VALID,94.9414,VALID,0,VALID,24.2875,VALID,52,VALID,0.366016,
2008-04-30, 03:20:04,VALID,1002.25,VALID,0,VALID,94.8804,VALID,0,VALID,24.3088,VALID,52,VALID,0.270703,
2008-04-30, 03:21:04,VALID,1002.27,VALID,0,VALID,94.827,VALID,0,VALID,24.3478,VALID,52,VALID,0.474609,
2008-04-30, 03:22:04,VALID,1002.29,VALID,0,VALID,94.8194,VALID,0,VALID,24.3478,VALID,52,VALID,0.512891,
2008-04-30, 03:23:04,VALID,1002.29,VALID,0,VALID,94.7431,VALID,0,VALID,24.3673,VALID,52,VALID,0.413281,
2008-04-30, 03:24:04,VALID,1002.28,VALID,0,VALID,94.6591,VALID,0,VALID,24.4062,VALID,41,VALID,0.727344,
2008-04-30, 03:25:04,VALID,1002.28,VALID,0,VALID,94.56,VALID,0,VALID,24.4451,VALID,41,VALID,0.547266,
2008-04-30, 03:26:04,VALID,1002.28,VALID,0,VALID,94.4532,VALID,0,VALID,24.4451,VALID,41,VALID,0.328906,
2008-04-30, 03:27:04,VALID,1002.28,VALID,0,VALID,94.3692,VALID,0,VALID,24.4433,VALID,41,VALID,0.182812,
2008-04-30, 03:28:04,VALID,1002.28,VALID,0,VALID,94.2853,VALID,0,VALID,24.4257,VALID,41,VALID,0.322656,
2008-04-30, 03:29:04,VALID,1002.29,VALID,0,VALID,94.2853,VALID,0,VALID,24.4257,VALID,37,VALID,0.332031,
2008-04-30, 03:30:04,VALID,1002.29,VALID,0,VALID,94.3006,VALID,0,VALID,24.4257,VALID,37,VALID,0.260156,
2008-04-30, 03:31:04,VALID,1002.33,VALID,0,VALID,94.2624,VALID,0,VALID,24.4257,VALID,37,VALID,0.289844,
2008-04-30, 03:32:04,VALID,1002.34,VALID,0,VALID,94.2701,VALID,0,VALID,24.3849,VALID,37,VALID,0.349609,
2008-04-30, 03:33:04,VALID,1002.33,VALID,0,VALID,94.3082,VALID,0,VALID,24.4062,VALID,37,VALID,0.155078,
2008-04-30, 03:34:04,VALID,1002.36,VALID,0,VALID,94.3616,VALID,0,VALID,24.3867,VALID,37,VALID,0.330078,
2008-04-30, 03:35:04,VALID,1002.34,VALID,0,VALID,94.3692,VALID,0,VALID,24.3654,VALID,37,VALID,0.344531,
2008-04-30, 03:36:04,VALID,1002.34,VALID,0,VALID,94.4684,VALID,0,VALID,24.3478,VALID,37,VALID,0.374219,
2008-04-30, 03:37:04,VALID,1002.33,VALID,0,VALID,94.4989,VALID,0,VALID,24.3459,VALID,35,VALID,0.624219,
2008-04-30, 03:38:04,VALID,1002.34,VALID,0,VALID,94.5523,VALID,0,VALID,24.3265,VALID,29,VALID,0.407031,
2008-04-30, 03:39:04,VALID,1002.32,VALID,0,VALID,94.5142,VALID,0,VALID,24.3478,VALID,29,VALID,0.460938,
2008-04-30, 03:40:04,VALID,1002.34,VALID,0,VALID,94.5295,VALID,0,VALID,24.307,VALID,29,VALID,0.372656,
2008-04-30, 03:41:04,VALID,1002.31,VALID,0,VALID,94.5447,VALID,0,VALID,24.3088,VALID,29,VALID,0.289453,
2008-04-30, 03:42:04,VALID,1002.32,VALID,0,VALID,94.5829,VALID,0,VALID,24.3088,VALID,29,VALID,0.00117188,
2008-04-30, 03:43:04,VALID,1002.32,VALID,0,VALID,94.6286,VALID,0,VALID,24.2894,VALID,31,VALID,0.337109,
2008-04-30, 03:44:04,VALID,1002.32,VALID,0,VALID,94.6286,VALID,0,VALID,24.2894,VALID,43,VALID,0.251563,
2008-04-30, 03:45:04,VALID,1002.3,VALID,0,VALID,94.6668,VALID,0,VALID,24.2894,VALID,50,VALID,0.150391,
2008-04-30, 03:46:04,VALID,1002.33,VALID,0,VALID,94.7202,VALID,0,VALID,24.2894,VALID,50,VALID,0.315625,
2008-04-30, 03:47:04,VALID,1002.31,VALID,0,VALID,94.7202,VALID,0,VALID,24.2894,VALID,50,VALID,0.174219,